Weather in Pomozdino

Russia / Komi Republic     62°11′42″N   54°11′06″E
temp.,
°C
wind,
m/s
gust,
m/s
humid.,
%
clouds,
%
prec.,
mm/h
press.,
hPa
HPBL,
m
22 january, sat
sat2200:00−11s389486 0.0 1018233
03:00−15s2797100 0.0 1020123
06:00−18sse2398100 0.0 102239
09:00−17s1398100 0.0 102455
12:00−12s139189 0.0 1025111
15:00−16se119887 0.0 102713
18:00−18sse229873 0.0 102834
21:00−19sse2210081 0.0 103036
23 january, sun
sun2300:00−20se2310099 0.0 103143
03:00−20sse2410097 0.0 103164
06:00−20se2610088 0.0 103199
09:00−19se2810095 0.0 1032149
12:00−13sse389494 0.0 1031210
15:00−11sse399590 0.1 1030317
18:00−11s279774 0.1 1031179
21:00−11s279894 0.1 1031156
24 january, mon
mon2400:00−12ssw269892 0.1 1031131
03:00−14ssw269887 0.1 1032122
06:00−16ssw279886 0.0 1032155
09:00−14sw399494 0.0 1032248
12:00−12sw311905 0.0 1031391
15:00−11sw4128999 0.0 1029449
18:00−10sw41192100 0.1 1028486
21:00−9sw41192100 0.2 1027488
25 january, tue
tue2500:00−8sw41193100 0.4 1025510
03:00−8sw4139095 0.5 1024529
06:00−9sw4128799 0.0 1022456
09:00−10sw413849 0.0 1022457
12:00−8sw4148211 0.0 1021567
15:00−9ssw4138328 0.0 1020500
18:00−10ssw414855 0.0 1019473
21:00−10ssw41393100 0.0 1019479
26 january, wed
wed2600:00−10ssw4119155 0.0 1018414
03:00−12ssw31092100 0.0 1019338
06:00−13s3109482 0.0 1018289
09:00−14s3995100 0.0 1019285
12:00−12ssw3892100 0.0 1019395
15:00−11ssw3794100 0.1 1020363
18:00−12ssw279581 0.2 1021290
21:00−12ssw259681 0.3 1021239